Preview of NWS' New Version of Forecast
This preview is not operational and should not be used for support decisions.

Regional Weather Roundup (RWR)

Issued by National Weather Service (NWS)

                            
000
ASCA42 TJSJ 182210
RWRPR 
PUERTO RICO/U.S. VIRGIN ISLANDS HOURLY WEATHER ROUNDUP
NATIONAL WEATHER SERVICE SAN JUAN PR
600 PM AST TUE JUN 18 2019

PRZ001>002-007>008-010-182300-
PUERTO RICO
  
CITY           SKY/WX    TMP DP  RH WIND       PRES   REMARKS
SAN JUAN LMM   MOSUNNY   84  75  74 E18       30.06R HX  92           
AGUADILLA      CLOUDY    82  75  78 E20G25    30.07R                  
CEIBA          CLOUDY    84  73  70 E9        30.07S HX  91           
$$

VIZ001>002-182300-
U.S. VIRGIN ISLANDS
  
CITY           SKY/WX    TMP DP  RH WIND       PRES   REMARKS
CHARLOTTE AMA  MOSUNNY   84  73  70 E15       30.06R HX  91           
CHRISTIANSTED  MOSUNNY   82  72  69 NE15      30.06R                  
$$

HOURLY WEATHER ROUNDUP FOR THE NEWS MEDIA
  
CITY           SKY/WX    TMP DP  RH WIND       PRES   REMARKS
ORLANDO        PTSUNNY   82  75  79 S13       30.00F                  
NEW YORK       CLOUDY    70  70 100 E6        29.84                   
NEWARK         RAIN      71  69  93 E7        29.83F FOG              
CHICAGO        FAIR      78  58  49 E6        29.87F                  
HARTFORD       LGT RAIN  65  63  93 SE7       29.91S                  
BOSTON         LGT RAIN  65  62  90 NE7       29.91F FOG              
DALLAS         MOSUNNY   92  62  36 W7        29.84F HX  92           
PHILADELPHIA   PTSUNNY   80  70  71 SW17      29.82S                  
LOS ANGELES    MOSUNNY   70  58  65 W12       29.97F                  
WASHINGTON DC  PTSUNNY   84  65  52 N8        29.87F